This is the latest recevied weather packets stored in our database for station/object NO9B. If no packets are shown the sender has not sent any weather packets the latest 10 day(s).
| Time | Temp. | Humidity | Pressure | Rain* | Wind** | Luminosity | Snow |
|---|---|---|---|---|---|---|---|
| 1788208616 | 28.89° C | 73% | 1013 hPa | 0 mm | - | 60 W/m² | - |
| 1788208315 | 28.33° C | 72% | 1013.1 hPa | 0 mm | - | 56 W/m² | - |
| 1788208014 | 28.89° C | 72% | 1013.2 hPa | 0 mm | - | 45 W/m² | - |
| 1788207710 | 28.89° C | 73% | 1013.4 hPa | 0 mm | - | 30 W/m² | - |
| 1788207409 | 28.89° C | 72% | 1013.3 hPa | 0 mm | - | 24 W/m² | - |
| 1788207109 | 28.89° C | 71% | 1013.5 hPa | 0 mm | - | 27 W/m² | - |
| 1788206805 | 29.44° C | 70% | 1013.2 hPa | 0 mm | - | 26 W/m² | - |
| 1788206504 | 29.44° C | 70% | 1013.3 hPa | 0 mm | - | 43 W/m² | - |
| 1788206200 | 29.44° C | 71% | 1013.3 hPa | 0 mm | - | 54 W/m² | - |
| 1788205895 | 30° C | 68% | 1013 hPa | 0 mm | - | 66 W/m² | - |
| 1788205590 | 30° C | 67% | 1013 hPa | 0 mm | - | 74 W/m² | - |
| 1788205286 | 30° C | 68% | 1013.1 hPa | 0 mm | - | 86 W/m² | - |
| 1788204986 | 30.56° C | 65% | 1013.1 hPa | 0 mm | - | 92 W/m² | - |
| 1788204681 | 30.56° C | 65% | 1013.3 hPa | 0 mm | - | 283 W/m² | - |
| 1788204376 | 31.11° C | 63% | 1013.3 hPa | 0 mm | - | 126 W/m² | - |
| 1788204072 | 31.67° C | 64% | 1013.3 hPa | 0 mm | - | 95 W/m² | - |
| 1788203768 | 31.67° C | 61% | 1013.3 hPa | 0 mm | - | 551 W/m² | - |
| 1788203463 | 31.67° C | 63% | 1013.4 hPa | 0 mm | - | 574 W/m² | - |
| 1788203158 | 31.67° C | 61% | 1013.3 hPa | 0 mm | - | 566 W/m² | - |
| 1788202857 | 31.11° C | 63% | 1013.3 hPa | 0 mm | - | 573 W/m² | - |
| 1788202553 | 31.11° C | 64% | 1013.3 hPa | 0 mm | - | 575 W/m² | - |
| 1788202248 | 31.11° C | 60% | 1013.2 hPa | 0 mm | - | 483 W/m² | - |
| 1788201948 | 31.11° C | 65% | 1013.2 hPa | 0 mm | - | 449 W/m² | - |
| 1788201644 | 31.67° C | 66% | 1013.3 hPa | 0 mm | - | 501 W/m² | - |
| 1788201343 | 31.11° C | 67% | 1013.2 hPa | 0 mm | - | 575 W/m² | - |
* Rain latest hour (hover to see other rain measurements)
** Current wind speed in m/s (hover to see current wind gust speed)